Вернуться в каталог

STARLINK-37246

АктивенСвязьSSO
NORAD 68607·PAYLOAD·🇺🇸 United States

Запущен Apr 5, 2026 с Vandenberg Space Force Base

Loading…

Ближайшие Пролёты (ближайшие 24 часа)

TLE

СвежийSource: CelesTrak SupGP

Эпоха: Sep 14, 2026, 23:21 UTC

1 68607C 26073F   26257.97340278  .00080342  00000+0  24944-2 0  2575
2 68607  97.2851  96.1223 0001722  91.6801  47.7248 15.33392593    17

Отслеживайте STARLINK-37246 в реальном времени с AllMySat

Download on the App Store